Regional Weather Roundup
Issued by NWS

Home | Current Version | Previous Version | Text Only | Print | Product List | Glossary On
Versions: 1 2 3 4 5 6 7 8 9 10 11 12 13 14 15 16 17 18 19 20 21 22 23 24 25 26 27 28 29 30 31 32 33 34 35 36 37 38 39 40 41 42 43 44 45 46 47 48 49 50
000
ASUS45 KTFX 180419
RWRMT
MONTANA HOURLY WEATHER ROUNDUP
NATIONAL WEATHER SERVICE GREAT FALLS MT
919 PM MST WED DEC 17 2014

NOTE: "FAIR" INDICATES FEW OR NO CLOUDS BELOW 12000 FEET WITH NO
SIGNIFICANT WEATHER AND/OR OBSTRUCTIONS TO VISIBILITY.

* THESE STATIONS ARE NOT UNDER NWS QUALITY CONTROL. THEY DO NOT
   REPORT WEATHER SUCH AS PRECIPITATION OR FOG.

MTZ001>007-043-180500-
WEST OF THE DIVIDE
CITY           SKY/WX    TMP DP  RH WIND       PRES   REMARKS
KALISPELL      CLOUDY    27  25  92 CALM      29.96S
MISSOULA       MOCLDY    28  23  81 CALM      29.99R
BUTTE          PTCLDY    12   9  88 CALM      29.95R
MULLAN PASS    CLOUDY    27  27 100 VRB3      29.88R
* ANACONDA     PTCLDY    28  18  66 SW5        N/A   WCI  22
* ESSEX        N/A       28  26  92 N/A        N/A
* EUREKA APT   PTCLDY    28  25  89 CALM      29.99S
* HAMILTON APT MOCLDY    28  25  89 E2        29.97R
* LIBBY APT    MOCLDY    30  28  92 CALM       N/A
* LINCOLN      N/A       17  15  92 S1         N/A
* LOOKOUT PASS N/A       30  28  92 S1         N/A
* POLSON       N/A       27  26  96 N/A        N/A
* RONAN APT    CLOUDY    30  28  92 N/A        N/A
* SEELEY LAKE  N/A       18  16  92 NE2        N/A
* THOMP F APT  MOCLDY    20  17  88 N3         N/A
$$

MTZ008-052>055-180500-
SOUTHWEST MONTANA
CITY           SKY/WX    TMP DP  RH WIND       PRES   REMARKS
BOZEMAN        PTCLDY    18  16  92 SE9       29.97S WCI   7
DILLON         PTCLDY    19  14  81 S8        29.96S WCI   9
* W YELLOWSTON CLEAR     21  19  92 N/A        N/A
* THREE FORKS  PTCLDY    18  -2  41 N/A        N/A
* TWIN BRIDGES PTCLDY    21  12  68 N/A        N/A
* BOULDER HILL N/A       25  17  72 SW8        N/A   WCI  16
* MONIDA PASS  N/A       17  16  96 SE6        N/A   WCI   8
* RAYNOLDS PAS N/A       16  -3  42 SE4        N/A
* WHITEHALL    N/A       21  17  84 N6G11      N/A   WCI  13
* WISE RIVER   N/A       17  15  92 SW3        N/A
$$

MTZ009>010-012-014-046-048-049-054-180500-
EAST SLOPES AND CENTRAL MONTANA
CITY           SKY/WX    TMP DP  RH WIND       PRES   REMARKS
CUT BANK       FOG        9   5  84 N6        29.86S VSB 1 3/4 WCI  -1
GREAT FALLS    CLEAR     28  25  89 S12       29.87S WCI  18
HELENA         PTCLDY    21  19  92 CALM      29.95R
MALMSTROM AFB  CLEAR     27  23  85 SW10      29.90S WCI  18
* CONRAD       CLEAR      9   7  91 CALM       N/A
* DEARBORN     N/A       26  24  92 S3         N/A
* EAST GLACIER N/A       34  24  67 W17G26     N/A   WCI  23
* MONARCH      N/A       25  17  72 S9         N/A   WCI  16
* PENDROY      N/A       25  24  96 W3         N/A
* ROGERS PASS  N/A       29  21  72 SE4G11     N/A
* SWEET GRASS  N/A       16  16 100 S7         N/A   WCI   6
* WHITE SULPH  N/A       26  19  75 S10        N/A   WCI  16
$$

MTZ011-013-016-021-035-040-045-047-050-051-180500-
NORTH CENTRAL MONTANA
CITY           SKY/WX    TMP DP  RH WIND       PRES   REMARKS
HAVRE          CLOUDY    18  16  92 SW3       29.93R
LEWISTOWN      CLOUDY    30  21  69 W3        29.88S
* N BAR RANCH  CLOUDY    30  27  89 CALM      29.89S
* CHINOOK      CLEAR     21  19  92 W6        29.94R WCI  13
* CHESTER      N/A       21  19  92 N1         N/A
* DENTON       N/A       28  27  96 SW2        N/A
* GEYSER       N/A       30  19  64 W4         N/A
* JUDITH GAP   N/A       22  21  96 W4         N/A
* LOMA         N/A       24  23  96 NE6        N/A   WCI  17
$$

MTZ017>020-022>027-061-062-180500-
NORTHEAST MONTANA
CITY           SKY/WX    TMP DP  RH WIND       PRES   REMARKS
GLASGOW        CLOUDY    25  19  78 SE8       29.97F WCI  16
GLENDIVE       MOCLDY    21  19  92 SE6       30.00F WCI  13
JORDAN         CLEAR     27  23  85 CALM      29.94S
SIDNEY         CLOUDY    21  18  88 SE6       30.06F WCI  13
WOLF POINT     CLOUDY    25  18  75 SE8       30.02F WCI  16
* BEAVER HILL  N/A       20  18  92 S8         N/A   WCI  10
* CIRCLE       N/A       24  21  88 N/A        N/A
* LINDSAY DVD  N/A       19  18  96 SE3        N/A
* NAVAJO       N/A       17  15  92 S9         N/A   WCI   6
* PLENTYWOOD A PTCLDY    18  16  92 SE10      30.03F WCI   6
* POPLAR APT   CLEAR     21  18  88 E8        30.02F WCI  11
* SACO         N/A       24  20  85 E7         N/A   WCI  16
$$

MTZ028>042-056>058-180500-
SOUTHCENTRAL AND SOUTHEAST MONTANA
CITY           SKY/WX    TMP DP  RH WIND       PRES   REMARKS
BAKER          CLOUDY    21  19  92 SE8       29.97F WCI  11
BILLINGS       PTCLDY    30  21  69 SW15      29.93R WCI  19
LIVINGSTON     CLEAR     34  19  54 W26G33    29.92R WCI  21
MILES CITY     CLOUDY    25  21  85 SE6       29.96S WCI  18
* FORSYTH APT  PTCLDY    21  21 100 CALM      29.94F
* LAUREL APT   PTCLDY    25  14  63 SW5        N/A   WCI  19
* ROUNDUP APT  MOCLDY    27  21  78 N/A        N/A
* ALZADA       N/A       19  17  92 SE2        N/A
* HYSHAM       N/A       27  22  81 W5         N/A   WCI  21
* LAME DEER    N/A       27  26  96 N/A        N/A
* REED POINT   N/A       23  22  96 E1         N/A
* ROSCOE HILL  N/A       28  14  56 SW2        N/A
$$

REGIONAL REPORTS...DAKOTAS
CITY           SKY/WX    TMP DP  RH WIND       PRES   REMARKS
WILLISTON      CLOUDY    19  14  81 SE8       30.07F WCI   9
DICKINSON      CLOUDY    18  16  92 SE10      30.02F WCI   6
BEACH          CLOUDY    19  19 100 S13       30.00F WCI   6
CROSBY         CLOUDY    18  14  84 S12       30.09F WCI   5
TIOGA          CLOUDY    16  16 100 S13       30.09F WCI   2
WATFORD CITY   CLOUDY    18  16  92 SE9       30.05F WCI   7
BISMARCK       CLOUDY    18  12  77 SE8       30.18F WCI   8
GRAND FORKS    PTCLDY     7   3  83 W6        30.33R WCI  -4
FARGO          PTCLDY     9   3  76 CALM      30.32S
BUFFALO SD     CLEAR     21  18  88 S9        29.93S WCI  11
RAPID CITY     CLOUDY    21  19  92 SE3       30.00F
$$

REGIONAL REPORTS...WYOMING/IDAHO/WASHINGTON
CITY           SKY/WX    TMP DP  RH WIND       PRES   REMARKS
GILLETTE       CLEAR     19  16  88 SW6       29.94S WCI  11
SHERIDAN       PTCLDY    16  10  77 S3        29.93S
CODY           PTCLDY    18  10  71 CALM      29.92R
YELLOWSTONE LA PTCLDY    18  16  92 CALM      29.98S
SALMON         PTCLDY    18  16  92 CALM      30.05R
MULLAN PASS    CLOUDY    27  27 100 VRB3      29.88S
SAND POINT     N/A       32  32 100 CALM      29.97S
SPOKANE        CLOUDY    36  34  92 NE5       29.94R WCI  32
$$

REGIONAL REPORTS...ALBERTA
CITY           SKY/WX    TMP DP  RH WIND       PRES   REMARKS
CALGARY        MOCLDY    28  19  69 S6        29.79F WCI  21
LETHBRIDGE     MOCLDY    28  23  81 SW6       29.83S WCI  21
MEDICINE HAT   CLEAR     18  18 100 VRB2      29.86S
EDMONTON       FOG       18  16  92 SW7       29.83F VSB 1 1/4 WCI   9
WATERTON GATE  N/A       36  25  64 SW17G25    N/A   WCI  26
CARDSTON       N/A       18  16  92 SE7        N/A   WCI   9
MILK RIVER     N/A        9   7  91 S2         N/A
$$

REGIONAL REPORTS...SASKATCHEWAN
CITY           SKY/WX    TMP DP  RH WIND       PRES   REMARKS
SWIFT CURRENT  CLOUDY    21  19  92 S16G22    29.88R WCI   7
REGINA         LGT SNOW  18  14  84 S15       30.04F WCI   4
VAL MARIE      N/A       23  21  92 S5         N/A   WCI  16
ASSINIBOIA     N/A       19  18  96 S9         N/A   WCI   8
CORONACH       N/A       19  18  96 SE10       N/A   WCI   8

$$




USA.gov is the U.S. government's official web portal to all federal, state and local government web resources and services.